Location: Newark
(41.6500°N, 71.4833°W)
Time: 20:05:44
(UTC+00:00)

A-11 Canister half - Pass Details

Date: 29 January 2020
Orbit: 1517 x 1683 km, 47.2° (Epoch: 19 February)

Event Time Altitude Azimuth Distance (km) Brightness Sun altitude
Rises 07:16:03 0° 287° (WNW) 4,698 - -52.5°
Reaches altitude 10° 07:19:09 10° 290° (WNW) 3,701 - -52.0°
Maximum altitude 07:28:26 69° 14° (NNE) 1,608 - -50.4°
Exits shadow 07:33:08 33° 88° (E) 2,339 10.1 -49.6°
Drops below altitude 10° 07:37:41 10° 97° (E) 3,688 11.4 -48.8°
Sets 07:40:46 0° 100° (E) 4,680 12.1 -48.3°
